Home > Weather > Apolda > Past weeks

Flag for Germany Weather for the Past 2 Weeks in Apolda, Thuringia, Germany

Now
28 °F

Clear.


Feels Like: 28 °F
Forecast: 36 / 45 °F
Wind: No wind

Location: Erfurt-Bindersleben

Current Time: Feb 13, 2016 at 3:38:46 AM

Latest Report: Feb 13, 2016 at 2:50 AM


Visibility: 10 mi

Pressure: 29.42 "Hg

Humidity: 93%

Dew point: 27 °F

Location of ApoldaLocation

Historic Weather in Apolda — Graph

°F

Apolda Temperature Yesterday

Maximum temperature yesterday: 41 °F (at 1:20 PM)
Minimum temperature yesterday: 30 °F (at 1:50 AM)
Average temperature yesterday: 35 °F

High & Low Weather Summary for the Past Weeks

 TemperatureHumidityPressure
High54 °F (Feb 1, 1:20 PM)100% (Feb 1, 5:20 AM)30.30 "Hg (Feb 1, 5:20 AM)
Low30 °F (Feb 12, 1:50 AM)47% (Feb 7, 1:20 PM)28.97 "Hg (Feb 9, 7:20 PM)
Average41 °F78%29.79 "Hg
* Reported Jan 29 1:20 AM — Feb 13 1:50 AM, Apolda, Weather by CustomWeather, © 2016

Note: Actual official high and low records may vary slightly from our data, if they occured in-between our weather recording intervals... More about our weather records

Advertising

Apolda Weather History for the Previous 24 Hours

 ConditionsComfort  
Time TempWeatherWind HumidityBarometerVisibility
1:50 AM
Sat, Feb 13
30 °FClear.3 mph86%29.42 "Hg10 mi
1:20 AM30 °FClear.3 mph86%29.42 "Hg10 mi
12:50 AM30 °FClear.2 mph86%29.42 "Hg10 mi
12:20 AM32 °FClear.2 mph80%29.42 "Hg10 mi
11:50 PM
Fri, Feb 12
32 °FClear.1 mph80%29.42 "Hg10 mi
11:20 PM34 °FClear.2 mph75%29.45 "Hg10 mi
10:20 PM34 °FClear.2 mph75%29.45 "Hg10 mi
9:50 PM34 °FClear.2 mph75%29.45 "Hg10 mi
9:20 PM34 °FClear.5 mph75%29.45 "Hg10 mi
8:50 PM36 °FClear.5 mph70%29.45 "Hg10 mi
8:20 PM36 °FClear.5 mph70%29.45 "Hg10 mi
7:50 PM36 °FClear.3 mph75%29.47 "Hg10 mi
7:20 PM37 °FClear.3 mph70%29.47 "Hg10 mi
6:50 PM37 °FClear.2 mph70%29.47 "Hg10 mi
6:20 PM37 °FClear.3 mph65%29.47 "Hg10 mi
5:50 PM39 °FClear.2 mph61%29.47 "Hg10 mi
5:20 PM37 °FSunny.3 mph70%29.47 "Hg10 mi
4:50 PM39 °FPassing clouds.3 mph65%29.47 "HgN/A
4:20 PM39 °FPartly sunny.3 mph61%29.50 "HgN/A
3:50 PM39 °FPartly sunny.7 mph61%29.50 "HgN/A
3:20 PM39 °FPartly sunny.9 mph61%29.50 "HgN/A
2:50 PM41 °FScattered clouds.9 mph61%29.50 "HgN/A
2:20 PM39 °FScattered clouds.5 mph65%29.53 "HgN/A
1:50 PM41 °FScattered clouds.5 mph57%29.53 "HgN/A
1:20 PM41 °FScattered clouds.3 mph61%29.53 "HgN/A
12:50 PM39 °FScattered clouds.7 mph65%29.56 "HgN/A
12:20 PM39 °FScattered clouds.10 mph65%29.56 "HgN/A
11:50 AM39 °FScattered clouds.7 mph70%29.59 "HgN/A
11:20 AM37 °FScattered clouds.6 mph75%29.59 "HgN/A
10:50 AM39 °FPassing clouds.8 mph70%29.62 "HgN/A
10:20 AM37 °FScattered clouds.6 mph75%29.62 "HgN/A
9:50 AM37 °FPartly sunny.7 mph75%29.62 "HgN/A
9:20 AM36 °FPartly sunny.7 mph81%29.62 "HgN/A
8:50 AM34 °FPartly sunny.7 mph87%29.62 "HgN/A
8:20 AM34 °FPartly sunny.7 mph87%29.62 "HgN/A
7:50 AM32 °FPartly sunny.8 mph93%29.65 "HgN/A
7:20 AM32 °FPassing clouds.7 mph93%29.65 "HgN/A
6:20 AM32 °FPassing clouds.6 mph93%29.65 "HgN/A
5:50 AM30 °FPartly cloudy.7 mph93%29.65 "HgN/A
5:20 AM30 °FPassing clouds.7 mph93%29.65 "HgN/A
4:50 AM30 °FPartly cloudy.8 mph93%29.65 "HgN/A
4:20 AM30 °FClear.9 mph93%29.65 "Hg10 mi
3:50 AM30 °FPassing clouds.9 mph93%29.65 "HgN/A
3:20 AM32 °FPassing clouds.8 mph87%29.65 "HgN/A
Weather by CustomWeather, © 2016

See weather overviewHow to use our weather pages